Voltar ao catálogo

FREGAT DEB

AtivoUNKNOWN
NORAD 45822·DEBRIS·🇷🇺 Russia

Lançado Jul 18, 2011 de Baikonur Cosmodrome

Loading…

Próximas Passagens (próximas 24 horas)

TLE

AtualizadoSource: Space-Track

Época: Sep 14, 2026, 06:45 UTC

1 45822U 11037BG  26257.28175379  .00014943  00000-0  42093-2 0  9998
2 45822  51.3313 353.7920 1007725 277.9146  70.8703 12.96603470274282

Acompanhe FREGAT DEB em tempo real com AllMySat

Download on the App Store